Year,Month,Day,Hour,Minute,Value (Times are PST for temperature in C)
2008,05,03,00,00,9.20
2008,05,03,00,01,9.20
2008,05,03,00,02,9.20
2008,05,03,00,03,9.20
2008,05,03,00,04,9.20
2008,05,03,00,05,9.20
2008,05,03,00,06,9.20
2008,05,03,00,07,9.30
2008,05,03,00,08,9.30
2008,05,03,00,09,9.30
2008,05,03,00,10,9.30
2008,05,03,00,11,9.30
2008,05,03,00,12,9.30
2008,05,03,00,13,9.30
2008,05,03,00,14,9.30
2008,05,03,00,15,9.30
2008,05,03,00,16,9.30
2008,05,03,00,17,9.30
2008,05,03,00,18,9.30
2008,05,03,00,19,9.30
2008,05,03,00,20,9.30
2008,05,03,00,21,9.30
2008,05,03,00,22,9.30
2008,05,03,00,23,9.30
2008,05,03,00,24,9.30
2008,05,03,00,25,9.30
2008,05,03,00,26,9.30
2008,05,03,00,27,9.30
2008,05,03,00,28,9.30
2008,05,03,00,29,9.30
2008,05,03,00,30,9.30
2008,05,03,00,31,9.30
2008,05,03,00,32,9.30
2008,05,03,00,33,9.30
2008,05,03,00,34,9.30
2008,05,03,00,35,9.30
2008,05,03,00,36,9.30
2008,05,03,00,37,9.30
2008,05,03,00,38,9.30
2008,05,03,00,39,9.30
2008,05,03,00,40,9.30
2008,05,03,00,41,9.30
2008,05,03,00,42,9.30
2008,05,03,00,43,9.30
2008,05,03,00,44,9.30
2008,05,03,00,45,9.30
2008,05,03,00,46,9.30
2008,05,03,00,47,9.30
2008,05,03,00,48,9.30
2008,05,03,00,49,9.30
2008,05,03,00,50,9.30
2008,05,03,00,51,9.30
2008,05,03,00,52,9.30
2008,05,03,00,53,9.30
2008,05,03,00,54,9.30
2008,05,03,00,55,9.30
2008,05,03,00,56,9.30
2008,05,03,00,57,9.30
2008,05,03,00,58,9.30
2008,05,03,00,59,9.30
2008,05,03,01,00,9.30
2008,05,03,01,01,9.20
2008,05,03,01,02,9.20
2008,05,03,01,03,9.20
2008,05,03,01,04,9.20
2008,05,03,01,05,9.20
2008,05,03,01,06,9.20
2008,05,03,01,07,9.20
2008,05,03,01,08,9.20
2008,05,03,01,09,9.20
2008,05,03,01,10,9.20
2008,05,03,01,11,9.20
2008,05,03,01,12,9.30
2008,05,03,01,13,9.30
2008,05,03,01,14,9.30
2008,05,03,01,15,9.30
2008,05,03,01,16,9.30
2008,05,03,01,17,9.30
2008,05,03,01,18,9.30
2008,05,03,01,19,9.30
2008,05,03,01,20,9.20
2008,05,03,01,21,9.20
2008,05,03,01,22,9.20
2008,05,03,01,23,9.20
2008,05,03,01,24,9.20
2008,05,03,01,25,9.20
2008,05,03,01,26,9.20
2008,05,03,01,27,9.20
2008,05,03,01,28,9.10
2008,05,03,01,29,9.10
2008,05,03,01,30,9.10
2008,05,03,01,31,9.10
2008,05,03,01,32,9.10
2008,05,03,01,33,9.10
2008,05,03,01,34,9.00
2008,05,03,01,35,9.00
2008,05,03,01,36,9.00
2008,05,03,01,37,9.00
2008,05,03,01,38,9.00
2008,05,03,01,39,9.00
2008,05,03,01,40,9.00
2008,05,03,01,41,8.90
2008,05,03,01,42,8.90
2008,05,03,01,43,8.90
2008,05,03,01,44,8.90
2008,05,03,01,45,8.90
2008,05,03,01,46,8.90
2008,05,03,01,47,8.90
2008,05,03,01,48,8.90
2008,05,03,01,49,8.90
2008,05,03,01,50,8.90
2008,05,03,01,51,8.90
2008,05,03,01,52,8.80
2008,05,03,01,53,8.80
2008,05,03,01,54,8.80
2008,05,03,01,55,8.80
2008,05,03,01,56,8.80
2008,05,03,01,57,8.80
2008,05,03,01,58,8.80
2008,05,03,01,59,8.80
2008,05,03,02,00,8.80
2008,05,03,02,01,8.80
2008,05,03,02,02,8.80
2008,05,03,02,03,8.80
2008,05,03,02,04,8.80
2008,05,03,02,05,8.80
2008,05,03,02,06,8.80
2008,05,03,02,07,8.80
2008,05,03,02,08,8.80
2008,05,03,02,09,8.80
2008,05,03,02,10,8.80
2008,05,03,02,11,8.80
2008,05,03,02,12,8.80
2008,05,03,02,13,8.80
2008,05,03,02,14,8.80
2008,05,03,02,15,8.80
2008,05,03,02,16,8.80
2008,05,03,02,17,8.80
2008,05,03,02,18,8.80
2008,05,03,02,19,8.80
2008,05,03,02,20,8.80
2008,05,03,02,21,8.80
2008,05,03,02,22,8.80
2008,05,03,02,23,8.80
2008,05,03,02,24,8.80
2008,05,03,02,25,8.80
2008,05,03,02,26,8.80
2008,05,03,02,27,8.80
2008,05,03,02,28,8.80
2008,05,03,02,29,8.80
2008,05,03,02,30,8.80
2008,05,03,02,31,8.80
2008,05,03,02,32,8.80
2008,05,03,02,33,8.80
2008,05,03,02,34,8.80
2008,05,03,02,35,8.80
2008,05,03,02,36,8.80
2008,05,03,02,37,8.80
2008,05,03,02,38,8.80
2008,05,03,02,39,8.80
2008,05,03,02,40,8.80
2008,05,03,02,41,8.80
2008,05,03,02,42,8.80
2008,05,03,02,43,8.80
2008,05,03,02,44,8.80
2008,05,03,02,45,8.80
2008,05,03,02,46,8.80
2008,05,03,02,47,8.80
2008,05,03,02,48,8.80
2008,05,03,02,49,8.80
2008,05,03,02,50,8.80
2008,05,03,02,51,8.70
2008,05,03,02,52,8.70
2008,05,03,02,53,8.70
2008,05,03,02,54,8.70
2008,05,03,02,55,8.70
2008,05,03,02,56,8.70
2008,05,03,02,57,8.70
2008,05,03,02,58,8.70
2008,05,03,02,59,8.70
2008,05,03,03,00,8.70
2008,05,03,03,01,8.70
2008,05,03,03,02,8.70
2008,05,03,03,03,8.70
2008,05,03,03,04,8.70
2008,05,03,03,05,8.70
2008,05,03,03,06,8.70
2008,05,03,03,07,8.70
2008,05,03,03,08,8.70
2008,05,03,03,09,8.70
2008,05,03,03,10,8.70
2008,05,03,03,11,8.70
2008,05,03,03,12,8.70
2008,05,03,03,13,8.70
2008,05,03,03,14,8.70
2008,05,03,03,15,8.70
2008,05,03,03,16,8.70
2008,05,03,03,17,8.70
2008,05,03,03,18,8.70
2008,05,03,03,19,8.70
2008,05,03,03,20,8.70
2008,05,03,03,21,8.70
2008,05,03,03,22,8.70
2008,05,03,03,23,8.70
2008,05,03,03,24,8.70
2008,05,03,03,25,8.70
2008,05,03,03,26,8.70
2008,05,03,03,27,8.70
2008,05,03,03,28,8.70
2008,05,03,03,29,8.70
2008,05,03,03,30,8.70
2008,05,03,03,31,8.70
2008,05,03,03,32,8.70
2008,05,03,03,33,8.70
2008,05,03,03,34,8.70
2008,05,03,03,35,8.70
2008,05,03,03,36,8.70
2008,05,03,03,37,8.70
2008,05,03,03,38,8.70
2008,05,03,03,39,8.70
2008,05,03,03,40,8.70
2008,05,03,03,41,8.70
2008,05,03,03,42,8.70
2008,05,03,03,43,8.70
2008,05,03,03,44,8.70
2008,05,03,03,45,8.70
2008,05,03,03,46,8.70
2008,05,03,03,47,8.70
2008,05,03,03,48,8.70
2008,05,03,03,49,8.70
2008,05,03,03,50,8.70
2008,05,03,03,51,8.70
2008,05,03,03,52,8.70
2008,05,03,03,53,8.70
2008,05,03,03,54,8.70
2008,05,03,03,55,8.70
2008,05,03,03,56,8.70
2008,05,03,03,57,8.70
2008,05,03,03,58,8.70
2008,05,03,03,59,8.70
2008,05,03,04,00,8.70
2008,05,03,04,01,8.70
2008,05,03,04,02,8.70
2008,05,03,04,03,8.70
2008,05,03,04,04,8.70
2008,05,03,04,05,8.70
2008,05,03,04,06,8.70
2008,05,03,04,07,8.70
2008,05,03,04,08,8.70
2008,05,03,04,09,8.70
2008,05,03,04,10,8.70
2008,05,03,04,11,8.70
2008,05,03,04,12,8.70
2008,05,03,04,13,8.70
2008,05,03,04,14,8.70
2008,05,03,04,15,8.70
2008,05,03,04,16,8.70
2008,05,03,04,17,8.70
2008,05,03,04,18,8.70
2008,05,03,04,19,8.70
2008,05,03,04,20,8.70
2008,05,03,04,21,8.70
2008,05,03,04,22,8.70
2008,05,03,04,23,8.70
2008,05,03,04,24,8.70
2008,05,03,04,25,8.70
2008,05,03,04,26,8.70
2008,05,03,04,27,8.70
2008,05,03,04,28,8.70
2008,05,03,04,29,8.70
2008,05,03,04,30,8.70
2008,05,03,04,31,8.70
2008,05,03,04,32,8.70
2008,05,03,04,33,8.70
2008,05,03,04,34,8.70
2008,05,03,04,35,8.70
2008,05,03,04,36,8.60
2008,05,03,04,37,8.60
2008,05,03,04,38,8.60
2008,05,03,04,39,8.60
2008,05,03,04,40,8.60
2008,05,03,04,41,8.60
2008,05,03,04,42,8.60
2008,05,03,04,43,8.60
2008,05,03,04,44,8.60
2008,05,03,04,45,8.60
2008,05,03,04,46,8.60
2008,05,03,04,47,8.60
2008,05,03,04,48,8.60
2008,05,03,04,49,8.60
2008,05,03,04,50,8.60
2008,05,03,04,51,8.60
2008,05,03,04,52,8.70
2008,05,03,04,53,8.70
2008,05,03,04,54,8.70
2008,05,03,04,55,8.70
2008,05,03,04,56,8.70
2008,05,03,04,57,8.70
2008,05,03,04,58,8.60
2008,05,03,04,59,8.60
2008,05,03,05,00,8.60
2008,05,03,05,01,8.60
2008,05,03,05,02,8.60
2008,05,03,05,03,8.60
2008,05,03,05,04,8.60
2008,05,03,05,05,8.60
2008,05,03,05,06,8.60
2008,05,03,05,07,8.60
2008,05,03,05,08,8.60
2008,05,03,05,09,8.50
2008,05,03,05,10,8.50
2008,05,03,05,11,8.50
2008,05,03,05,12,8.50
2008,05,03,05,13,8.50
2008,05,03,05,14,8.50
2008,05,03,05,15,8.50
2008,05,03,05,16,8.50
2008,05,03,05,17,8.50
2008,05,03,05,18,8.50
2008,05,03,05,19,8.50
2008,05,03,05,20,8.50
2008,05,03,05,21,8.50
2008,05,03,05,22,8.50
2008,05,03,05,23,8.50
2008,05,03,05,24,8.50
2008,05,03,05,25,8.50
2008,05,03,05,26,8.50
2008,05,03,05,27,8.50
2008,05,03,05,28,8.50
2008,05,03,05,29,8.50
2008,05,03,05,30,8.50
2008,05,03,05,31,8.50
2008,05,03,05,32,8.50
2008,05,03,05,33,8.50
2008,05,03,05,34,8.50
2008,05,03,05,35,8.50
2008,05,03,05,36,8.50
2008,05,03,05,37,8.50
2008,05,03,05,38,8.50
2008,05,03,05,39,8.50
2008,05,03,05,40,8.50
2008,05,03,05,41,8.50
2008,05,03,05,42,8.50
2008,05,03,05,43,8.50
2008,05,03,05,44,8.50
2008,05,03,05,45,8.50
2008,05,03,05,46,8.50
2008,05,03,05,47,8.50
2008,05,03,05,48,8.50
2008,05,03,05,49,8.50
2008,05,03,05,50,8.50
2008,05,03,05,51,8.50
2008,05,03,05,52,8.50
2008,05,03,05,53,8.50
2008,05,03,05,54,8.50
2008,05,03,05,55,8.50
2008,05,03,05,56,8.50
2008,05,03,05,57,8.50
2008,05,03,05,58,8.60
2008,05,03,05,59,8.60
2008,05,03,06,00,8.60
2008,05,03,06,01,8.60
2008,05,03,06,02,8.60
2008,05,03,06,03,8.60
2008,05,03,06,04,8.60
2008,05,03,06,05,8.60
2008,05,03,06,06,8.60
2008,05,03,06,07,8.60
2008,05,03,06,08,8.60
2008,05,03,06,09,8.60
2008,05,03,06,10,8.60
2008,05,03,06,11,8.60
2008,05,03,06,12,8.60
2008,05,03,06,13,8.50
2008,05,03,06,14,8.60
2008,05,03,06,15,8.60
2008,05,03,06,16,8.60
2008,05,03,06,17,8.60
2008,05,03,06,18,8.60
2008,05,03,06,19,8.60
2008,05,03,06,20,8.60
2008,05,03,06,21,8.60
2008,05,03,06,22,8.60
2008,05,03,06,23,8.60
2008,05,03,06,24,8.60
2008,05,03,06,25,8.60
2008,05,03,06,26,8.60
2008,05,03,06,27,8.60
2008,05,03,06,28,8.60
2008,05,03,06,29,8.60
2008,05,03,06,30,8.60
2008,05,03,06,31,8.60
2008,05,03,06,32,8.60
2008,05,03,06,33,8.60
2008,05,03,06,34,8.60
2008,05,03,06,35,8.60
2008,05,03,06,36,8.60
2008,05,03,06,37,8.60
2008,05,03,06,38,8.60
2008,05,03,06,39,8.60
2008,05,03,06,40,8.60
2008,05,03,06,41,8.60
2008,05,03,06,42,8.60
2008,05,03,06,43,8.60
2008,05,03,06,44,8.60
2008,05,03,06,45,8.60
2008,05,03,06,46,8.50
2008,05,03,06,47,8.50
2008,05,03,06,48,8.50
2008,05,03,06,49,8.50
2008,05,03,06,50,8.50
2008,05,03,06,51,8.50
2008,05,03,06,52,8.50
2008,05,03,06,53,8.50
2008,05,03,06,54,8.50
2008,05,03,06,55,8.50
2008,05,03,06,56,8.50
2008,05,03,06,57,8.50
2008,05,03,06,58,8.50
2008,05,03,06,59,8.50
2008,05,03,07,00,8.50
2008,05,03,07,01,8.50
2008,05,03,07,02,8.50
2008,05,03,07,03,8.50
2008,05,03,07,04,8.50
2008,05,03,07,05,8.50
2008,05,03,07,06,8.50
2008,05,03,07,07,8.50
2008,05,03,07,08,8.50
2008,05,03,07,09,8.60
2008,05,03,07,10,8.60
2008,05,03,07,11,8.60
2008,05,03,07,12,8.60
2008,05,03,07,13,8.60
2008,05,03,07,14,8.60
2008,05,03,07,15,8.60
2008,05,03,07,16,8.60
2008,05,03,07,17,8.60
2008,05,03,07,18,8.60
2008,05,03,07,19,8.60
2008,05,03,07,20,8.60
2008,05,03,07,21,8.60
2008,05,03,07,22,8.60
2008,05,03,07,23,8.60
2008,05,03,07,24,8.60
2008,05,03,07,25,8.60
2008,05,03,07,26,8.60
2008,05,03,07,27,8.60
2008,05,03,07,28,8.50
2008,05,03,07,29,8.50
2008,05,03,07,30,8.50
2008,05,03,07,31,8.40
2008,05,03,07,32,8.40
2008,05,03,07,33,8.40
2008,05,03,07,34,8.40
2008,05,03,07,35,8.30
2008,05,03,07,36,8.30
2008,05,03,07,37,8.20
2008,05,03,07,38,8.20
2008,05,03,07,39,8.20
2008,05,03,07,40,8.20
2008,05,03,07,41,8.20
2008,05,03,07,42,8.20
2008,05,03,07,43,8.10
2008,05,03,07,44,8.10
2008,05,03,07,45,8.10
2008,05,03,07,46,8.00
2008,05,03,07,47,8.00
2008,05,03,07,48,8.00
2008,05,03,07,49,8.00
2008,05,03,07,50,8.00
2008,05,03,07,51,8.00
2008,05,03,07,52,8.00
2008,05,03,07,53,8.00
2008,05,03,07,54,8.00
2008,05,03,07,55,7.90
2008,05,03,07,56,7.90
2008,05,03,07,57,7.90
2008,05,03,07,58,7.90
2008,05,03,07,59,7.90
2008,05,03,08,00,7.90
2008,05,03,08,01,7.80
2008,05,03,08,02,7.80
2008,05,03,08,03,7.80
2008,05,03,08,04,7.80
2008,05,03,08,05,7.80
2008,05,03,08,06,7.80
2008,05,03,08,07,7.80
2008,05,03,08,08,7.80
2008,05,03,08,09,7.80
2008,05,03,08,10,7.80
2008,05,03,08,11,7.80
2008,05,03,08,12,7.80
2008,05,03,08,13,7.80
2008,05,03,08,14,7.80
2008,05,03,08,15,7.80
2008,05,03,08,16,7.80
2008,05,03,08,17,7.80
2008,05,03,08,18,7.80
2008,05,03,08,19,7.80
2008,05,03,08,20,7.80
2008,05,03,08,21,7.70
2008,05,03,08,22,7.70
2008,05,03,08,23,7.70
2008,05,03,08,24,7.70
2008,05,03,08,25,7.70
2008,05,03,08,26,7.70
2008,05,03,08,27,7.70
2008,05,03,08,28,7.70
2008,05,03,08,29,7.70
2008,05,03,08,30,7.70
2008,05,03,08,31,7.70
2008,05,03,08,32,7.70
2008,05,03,08,33,7.70
2008,05,03,08,34,7.60
2008,05,03,08,35,7.60
2008,05,03,08,36,7.60
2008,05,03,08,37,7.60
2008,05,03,08,38,7.60
2008,05,03,08,39,7.60
2008,05,03,08,40,7.60
2008,05,03,08,41,7.60
2008,05,03,08,42,7.60
2008,05,03,08,43,7.60
2008,05,03,08,44,7.60
2008,05,03,08,45,7.60
2008,05,03,08,46,7.50
2008,05,03,08,47,7.50
2008,05,03,08,48,7.50
2008,05,03,08,49,7.50
2008,05,03,08,50,7.50
2008,05,03,08,51,7.50
2008,05,03,08,52,7.60
2008,05,03,08,53,7.60
2008,05,03,08,54,7.60
2008,05,03,08,55,7.60
2008,05,03,08,56,7.60
2008,05,03,08,57,7.60
2008,05,03,08,58,7.60
2008,05,03,08,59,7.60
2008,05,03,09,00,7.60
2008,05,03,09,01,7.60
2008,05,03,09,02,7.60
2008,05,03,09,03,7.60
2008,05,03,09,04,7.60
2008,05,03,09,05,7.60
2008,05,03,09,06,7.70
2008,05,03,09,07,7.70
2008,05,03,09,08,7.70
2008,05,03,09,09,7.70
2008,05,03,09,10,7.70
2008,05,03,09,11,7.70
2008,05,03,09,12,7.70
2008,05,03,09,13,7.70
2008,05,03,09,14,7.70
2008,05,03,09,15,7.80
2008,05,03,09,16,7.80
2008,05,03,09,17,7.80
2008,05,03,09,18,7.80
2008,05,03,09,19,7.80
2008,05,03,09,20,7.80
2008,05,03,09,21,7.80
2008,05,03,09,22,7.80
2008,05,03,09,23,7.80
2008,05,03,09,24,7.80
2008,05,03,09,25,7.80
2008,05,03,09,26,7.80
2008,05,03,09,27,7.80
2008,05,03,09,28,7.80
2008,05,03,09,29,7.80
2008,05,03,09,30,7.80
2008,05,03,09,31,7.80
2008,05,03,09,32,7.80
2008,05,03,09,33,7.80
2008,05,03,09,34,7.80
2008,05,03,09,35,7.80
2008,05,03,09,36,7.80
2008,05,03,09,37,7.80
2008,05,03,09,38,7.80
2008,05,03,09,39,7.80
2008,05,03,09,40,7.80
2008,05,03,09,41,7.80
2008,05,03,09,42,7.80
2008,05,03,09,43,7.90
2008,05,03,09,44,7.90
2008,05,03,09,45,7.90
2008,05,03,09,46,7.90
2008,05,03,09,47,8.00
2008,05,03,09,48,8.00
2008,05,03,09,49,8.00
2008,05,03,09,50,8.00
2008,05,03,09,51,8.00
2008,05,03,09,52,8.00
2008,05,03,09,53,8.00
2008,05,03,09,54,8.00
2008,05,03,09,55,8.00
2008,05,03,09,56,8.00
2008,05,03,09,57,8.10
2008,05,03,09,58,8.10
2008,05,03,09,59,8.20
2008,05,03,10,00,8.20
2008,05,03,10,01,8.20
2008,05,03,10,02,8.20
2008,05,03,10,03,8.20
2008,05,03,10,04,8.20
2008,05,03,10,05,8.20
2008,05,03,10,06,8.20
2008,05,03,10,07,8.20
2008,05,03,10,08,8.20
2008,05,03,10,09,8.30
2008,05,03,10,10,8.30
2008,05,03,10,11,8.30
2008,05,03,10,12,8.20
2008,05,03,10,13,8.20
2008,05,03,10,14,8.20
2008,05,03,10,15,8.20
2008,05,03,10,16,8.20
2008,05,03,10,17,8.20
2008,05,03,10,18,8.30
2008,05,03,10,19,8.30
2008,05,03,10,20,8.30
2008,05,03,10,21,8.30
2008,05,03,10,22,8.30
2008,05,03,10,23,8.30
2008,05,03,10,24,8.30
2008,05,03,10,25,8.30
2008,05,03,10,26,8.30
2008,05,03,10,27,8.40
2008,05,03,10,28,8.40
2008,05,03,10,29,8.40
2008,05,03,10,30,8.40
2008,05,03,10,31,8.40
2008,05,03,10,32,8.40
2008,05,03,10,33,8.40
2008,05,03,10,34,8.40
2008,05,03,10,35,8.40
2008,05,03,10,36,8.40
2008,05,03,10,37,8.40
2008,05,03,10,38,8.40
2008,05,03,10,39,8.40
2008,05,03,10,40,8.40
2008,05,03,10,41,8.40
2008,05,03,10,42,8.40
2008,05,03,10,43,8.50
2008,05,03,10,44,8.50
2008,05,03,10,45,8.50
2008,05,03,10,46,8.60
2008,05,03,10,47,8.60
2008,05,03,10,48,8.60
2008,05,03,10,49,8.70
2008,05,03,10,50,8.70
2008,05,03,10,51,8.70
2008,05,03,10,52,8.70
2008,05,03,10,53,8.80
2008,05,03,10,54,8.80
2008,05,03,10,55,8.90
2008,05,03,10,56,8.90
2008,05,03,10,57,9.00
2008,05,03,10,58,9.00
2008,05,03,10,59,8.90
2008,05,03,11,00,8.90
2008,05,03,11,01,8.90
2008,05,03,11,02,8.80
2008,05,03,11,03,8.80
2008,05,03,11,04,8.80
2008,05,03,11,05,8.80
2008,05,03,11,06,8.90
2008,05,03,11,07,8.90
2008,05,03,11,08,8.90
2008,05,03,11,09,8.90
2008,05,03,11,10,8.90
2008,05,03,11,11,8.90
2008,05,03,11,12,8.90
2008,05,03,11,13,8.90
2008,05,03,11,14,8.90
2008,05,03,11,15,8.90
2008,05,03,11,16,8.90
2008,05,03,11,17,8.90
2008,05,03,11,18,8.90
2008,05,03,11,19,8.90
2008,05,03,11,20,8.90
2008,05,03,11,21,8.90
2008,05,03,11,22,9.00
2008,05,03,11,23,9.00
2008,05,03,11,24,9.00
2008,05,03,11,25,9.00
2008,05,03,11,26,9.00
2008,05,03,11,27,9.00
2008,05,03,11,28,9.10
2008,05,03,11,29,9.00
2008,05,03,11,30,9.00
2008,05,03,11,31,8.90
2008,05,03,11,32,8.90
2008,05,03,11,33,8.90
2008,05,03,11,34,9.00
2008,05,03,11,35,9.00
2008,05,03,11,36,8.90
2008,05,03,11,37,8.90
2008,05,03,11,38,8.90
2008,05,03,11,39,8.80
2008,05,03,11,40,8.80
2008,05,03,11,41,8.80
2008,05,03,11,42,8.80
2008,05,03,11,43,8.90
2008,05,03,11,44,8.90
2008,05,03,11,45,9.00
2008,05,03,11,46,8.90
2008,05,03,11,47,8.90
2008,05,03,11,48,8.90
2008,05,03,11,49,8.80
2008,05,03,11,50,8.80
2008,05,03,11,51,8.80
2008,05,03,11,52,8.70
2008,05,03,11,53,8.70
2008,05,03,11,54,8.70
2008,05,03,11,55,8.70
2008,05,03,11,56,8.80
2008,05,03,11,57,8.80
2008,05,03,11,58,8.80
2008,05,03,11,59,8.80
2008,05,03,12,00,8.90
2008,05,03,12,01,8.90
2008,05,03,12,02,8.90
2008,05,03,12,03,8.90
2008,05,03,12,04,8.90
2008,05,03,12,05,8.90
2008,05,03,12,06,9.00
2008,05,03,12,07,9.00
2008,05,03,12,08,9.00
2008,05,03,12,09,9.00
2008,05,03,12,10,9.00
2008,05,03,12,11,9.00
2008,05,03,12,12,9.10
2008,05,03,12,13,9.10
2008,05,03,12,14,9.10
2008,05,03,12,15,9.10
2008,05,03,12,16,9.10
2008,05,03,12,17,9.10
2008,05,03,12,18,9.00
2008,05,03,12,19,9.00
2008,05,03,12,20,9.00
2008,05,03,12,21,9.00
2008,05,03,12,22,9.00
2008,05,03,12,23,9.00
2008,05,03,12,24,9.00
2008,05,03,12,25,9.00
2008,05,03,12,26,9.00
2008,05,03,12,27,9.00
2008,05,03,12,28,9.00
2008,05,03,12,29,9.00
2008,05,03,12,30,9.00
2008,05,03,12,31,9.10
2008,05,03,12,32,9.00
2008,05,03,12,33,9.00
2008,05,03,12,34,9.10
2008,05,03,12,35,9.00
2008,05,03,12,36,9.00
2008,05,03,12,37,9.00
2008,05,03,12,38,9.00
2008,05,03,12,39,9.00
2008,05,03,12,40,9.00
2008,05,03,12,41,9.00
2008,05,03,12,42,9.00
2008,05,03,12,43,9.00
2008,05,03,12,44,9.00
2008,05,03,12,45,9.00
2008,05,03,12,46,9.00
2008,05,03,12,47,9.00
2008,05,03,12,48,9.00
2008,05,03,12,49,9.00
2008,05,03,12,50,9.00
2008,05,03,12,51,9.00
2008,05,03,12,52,9.00
2008,05,03,12,53,9.00
2008,05,03,12,54,8.90
2008,05,03,12,55,8.90
2008,05,03,12,56,8.80
2008,05,03,12,57,8.80
2008,05,03,12,58,8.70
2008,05,03,12,59,8.70
2008,05,03,13,00,8.70
2008,05,03,13,01,8.60
2008,05,03,13,02,8.60
2008,05,03,13,03,8.50
2008,05,03,13,04,8.40
2008,05,03,13,05,8.40
2008,05,03,13,06,8.40
2008,05,03,13,07,8.30
2008,05,03,13,08,8.30
2008,05,03,13,09,8.30
2008,05,03,13,10,8.30
2008,05,03,13,11,8.30
2008,05,03,13,12,8.30
2008,05,03,13,13,8.30
2008,05,03,13,14,8.30
2008,05,03,13,15,8.30
2008,05,03,13,16,8.30
2008,05,03,13,17,8.30
2008,05,03,13,18,8.30
2008,05,03,13,19,8.30
2008,05,03,13,20,8.30
2008,05,03,13,21,8.40
2008,05,03,13,22,8.40
2008,05,03,13,23,8.30
2008,05,03,13,24,8.30
2008,05,03,13,25,8.30
2008,05,03,13,26,8.30
2008,05,03,13,27,8.30
2008,05,03,13,28,8.40
2008,05,03,13,29,8.30
2008,05,03,13,30,8.30
2008,05,03,13,31,8.30
2008,05,03,13,32,8.20
2008,05,03,13,33,8.20
2008,05,03,13,34,8.20
2008,05,03,13,35,8.20
2008,05,03,13,36,8.20
2008,05,03,13,37,8.20
2008,05,03,13,38,8.20
2008,05,03,13,39,8.20
2008,05,03,13,40,8.30
2008,05,03,13,41,8.30
2008,05,03,13,42,8.30
2008,05,03,13,43,8.30
2008,05,03,13,44,8.40
2008,05,03,13,45,8.40
2008,05,03,13,46,8.40
2008,05,03,13,47,8.40
2008,05,03,13,48,8.30
2008,05,03,13,49,8.30
2008,05,03,13,50,8.30
2008,05,03,13,51,8.30
2008,05,03,13,52,8.30
2008,05,03,13,53,8.30
2008,05,03,13,54,8.30
2008,05,03,13,55,8.40
2008,05,03,13,56,8.40
2008,05,03,13,57,8.40
2008,05,03,13,58,8.50
2008,05,03,13,59,8.50
2008,05,03,14,00,8.50
2008,05,03,14,01,8.50
2008,05,03,14,02,8.50
2008,05,03,14,03,8.50
2008,05,03,14,04,8.60
2008,05,03,14,05,8.60
2008,05,03,14,06,8.70
2008,05,03,14,07,8.70
2008,05,03,14,08,8.70
2008,05,03,14,09,8.80
2008,05,03,14,10,8.70
2008,05,03,14,11,8.70
2008,05,03,14,12,8.60
2008,05,03,14,13,8.60
2008,05,03,14,14,8.60
2008,05,03,14,15,8.70
2008,05,03,14,16,8.70
2008,05,03,14,17,8.70
2008,05,03,14,18,8.70
2008,05,03,14,19,8.70
2008,05,03,14,20,8.70
2008,05,03,14,21,8.70
2008,05,03,14,22,8.70
2008,05,03,14,23,8.70
2008,05,03,14,24,8.70
2008,05,03,14,25,8.70
2008,05,03,14,26,8.80
2008,05,03,14,27,8.90
2008,05,03,14,28,9.00
2008,05,03,14,29,9.00
2008,05,03,14,30,9.10
2008,05,03,14,31,9.00
2008,05,03,14,32,9.00
2008,05,03,14,33,9.00
2008,05,03,14,34,9.00
2008,05,03,14,35,9.10
2008,05,03,14,36,9.10
2008,05,03,14,37,9.10
2008,05,03,14,38,9.10
2008,05,03,14,39,9.00
2008,05,03,14,40,9.00
2008,05,03,14,41,9.00
2008,05,03,14,42,9.00
2008,05,03,14,43,9.10
2008,05,03,14,44,9.20
2008,05,03,14,45,9.20
2008,05,03,14,46,9.10
2008,05,03,14,47,9.20
2008,05,03,14,48,9.20
2008,05,03,14,49,9.20
2008,05,03,14,50,9.20
2008,05,03,14,51,9.20
2008,05,03,14,52,9.20
2008,05,03,14,53,9.20
2008,05,03,14,54,9.20
2008,05,03,14,55,9.20
2008,05,03,14,56,9.30
2008,05,03,14,57,9.30
2008,05,03,14,58,9.40
2008,05,03,14,59,9.40
2008,05,03,15,00,9.40
2008,05,03,15,01,9.40
2008,05,03,15,02,9.40
2008,05,03,15,03,9.40
2008,05,03,15,04,9.40
2008,05,03,15,05,9.40
2008,05,03,15,06,9.40
2008,05,03,15,07,9.30
2008,05,03,15,08,9.30
2008,05,03,15,09,9.20
2008,05,03,15,10,9.20
2008,05,03,15,11,9.20
2008,05,03,15,12,9.20
2008,05,03,15,13,9.20
2008,05,03,15,14,9.20
2008,05,03,15,15,9.20
2008,05,03,15,16,9.20
2008,05,03,15,17,9.20
2008,05,03,15,18,9.20
2008,05,03,15,19,9.20
2008,05,03,15,20,9.20
2008,05,03,15,21,9.20
2008,05,03,15,22,9.10
2008,05,03,15,23,9.20
2008,05,03,15,24,9.20
2008,05,03,15,25,9.20
2008,05,03,15,26,9.20
2008,05,03,15,27,9.20
2008,05,03,15,28,9.20
2008,05,03,15,29,9.20
2008,05,03,15,30,9.20
2008,05,03,15,31,9.20
2008,05,03,15,32,9.30
2008,05,03,15,33,9.30
2008,05,03,15,34,9.30
2008,05,03,15,35,9.40
2008,05,03,15,36,9.40
2008,05,03,15,37,9.50
2008,05,03,15,38,9.50
2008,05,03,15,39,9.50
2008,05,03,15,40,9.50
2008,05,03,15,41,9.50
2008,05,03,15,42,9.50
2008,05,03,15,43,9.50
2008,05,03,15,44,9.60
2008,05,03,15,45,9.60
2008,05,03,15,46,9.60
2008,05,03,15,47,9.70
2008,05,03,15,48,9.70
2008,05,03,15,49,9.70
2008,05,03,15,50,9.70
2008,05,03,15,51,9.70
2008,05,03,15,52,9.70
2008,05,03,15,53,9.70
2008,05,03,15,54,9.70
2008,05,03,15,55,9.70
2008,05,03,15,56,9.70
2008,05,03,15,57,9.70
2008,05,03,15,58,9.70
2008,05,03,15,59,9.70
2008,05,03,16,00,9.70
2008,05,03,16,01,9.70
2008,05,03,16,02,9.80
2008,05,03,16,03,9.80
2008,05,03,16,04,9.80
2008,05,03,16,05,9.80
2008,05,03,16,06,9.90
2008,05,03,16,07,9.90
2008,05,03,16,08,9.90
2008,05,03,16,09,9.90
2008,05,03,16,10,9.90
2008,05,03,16,11,9.90
2008,05,03,16,12,9.90
2008,05,03,16,13,9.90
2008,05,03,16,14,9.90
2008,05,03,16,15,9.90
2008,05,03,16,16,9.90
2008,05,03,16,17,9.90
2008,05,03,16,18,10.10
2008,05,03,16,19,10.10
2008,05,03,16,20,10.10
2008,05,03,16,21,10.10
2008,05,03,16,22,10.10
2008,05,03,16,23,10.10
2008,05,03,16,24,10.10
2008,05,03,16,25,10.10
2008,05,03,16,26,10.10
2008,05,03,16,27,10.20
2008,05,03,16,28,10.20
2008,05,03,16,29,10.30
2008,05,03,16,30,10.30
2008,05,03,16,31,10.30
2008,05,03,16,32,10.30
2008,05,03,16,33,10.30
2008,05,03,16,34,10.20
2008,05,03,16,35,10.30
2008,05,03,16,36,10.30
2008,05,03,16,37,10.30
2008,05,03,16,38,10.30
2008,05,03,16,39,10.40
2008,05,03,16,40,10.30
2008,05,03,16,41,10.30
2008,05,03,16,42,10.20
2008,05,03,16,43,10.10
2008,05,03,16,44,10.00
2008,05,03,16,45,9.90
2008,05,03,16,46,9.90
2008,05,03,16,47,9.90
2008,05,03,16,48,9.90
2008,05,03,16,49,9.80
2008,05,03,16,50,9.80
2008,05,03,16,51,9.80
2008,05,03,16,52,9.80
2008,05,03,16,53,9.80
2008,05,03,16,54,9.70
2008,05,03,16,55,9.70
2008,05,03,16,56,9.70
2008,05,03,16,57,9.70
2008,05,03,16,58,9.70
2008,05,03,16,59,9.70
2008,05,03,17,00,9.70
2008,05,03,17,01,9.80
2008,05,03,17,02,9.80
2008,05,03,17,03,9.80
2008,05,03,17,04,9.90
2008,05,03,17,05,9.90
2008,05,03,17,06,9.90
2008,05,03,17,07,10.00
2008,05,03,17,08,10.10
2008,05,03,17,09,10.10
2008,05,03,17,10,10.10
2008,05,03,17,11,10.10
2008,05,03,17,12,10.30
2008,05,03,17,13,10.30
2008,05,03,17,14,10.40
2008,05,03,17,15,10.40
2008,05,03,17,16,10.40
2008,05,03,17,17,10.40
2008,05,03,17,18,10.40
2008,05,03,17,19,10.40
2008,05,03,17,20,10.40
2008,05,03,17,21,10.40
2008,05,03,17,22,10.40
2008,05,03,17,23,10.40
2008,05,03,17,24,10.40
2008,05,03,17,25,10.40
2008,05,03,17,26,10.40
2008,05,03,17,27,10.40
2008,05,03,17,28,10.40
2008,05,03,17,29,10.40
2008,05,03,17,30,10.40
2008,05,03,17,31,10.40
2008,05,03,17,32,10.40
2008,05,03,17,33,10.40
2008,05,03,17,34,10.40
2008,05,03,17,35,10.40
2008,05,03,17,36,10.40
2008,05,03,17,37,10.40
2008,05,03,17,38,10.40
2008,05,03,17,39,10.40
2008,05,03,17,40,10.40
2008,05,03,17,41,10.40
2008,05,03,17,42,10.40
2008,05,03,17,43,10.50
2008,05,03,17,44,10.60
2008,05,03,17,45,10.60
2008,05,03,17,46,10.60
2008,05,03,17,47,10.70
2008,05,03,17,48,10.70
2008,05,03,17,49,10.60
2008,05,03,17,50,10.60
2008,05,03,17,51,10.60
2008,05,03,17,52,10.60
2008,05,03,17,53,10.60
2008,05,03,17,54,10.60
2008,05,03,17,55,10.50
2008,05,03,17,56,10.40
2008,05,03,17,57,10.40
2008,05,03,17,58,10.40
2008,05,03,17,59,10.40
2008,05,03,18,00,10.40
2008,05,03,18,01,10.40
2008,05,03,18,02,10.40